Погода в Зональной станции

Россия / Томская область     56°25′36″N   85°01′22″E
темп.,
°C
ветер,
м/с
пор.,
м/с
влажн.,
%
обл.,
%
осадки,
мм/ч
давл.,
гПа
погр.,
м
16 апреля, пт
пт1601:00+3ююз41199100 0.1 1017402
04:00+3ююз41299100 0.1 1014424
07:00+3ююз51398100 0.1 1013389
10:00+5ююз514100100 0.1 1011449
13:00+7зюз61599100 0.7 1010848
16:00+5зюз41099100 1.2 1009514
19:00+1с31099100 2.9 1014494
22:000ссз2798100 1.5 1016460
17 апреля, сб
сб1701:00−1ссз4109396 1.6 1017389
04:00−3с488889 0.1 1020602
07:00−7с37805 0.1 1023533
10:00−5с23610 0.0 1024729
13:00−1ссз22524 0.0 10241070
16:000зсз124940 0.0 10231136
19:000зюз23585 0.0 1023951
22:00−4юз25834 0.0 102390
18 апреля, вс
вс1801:00−4ююз2880100 0.0 1022191
04:00−3ю3980100 0.0 1019431
07:00−1ююз51177100 0.0 1016766
10:00+1ююз61171100 0.0 1013961
13:00+4ююз61165100 0.0 10101481
16:00+3ююз61176100 0.0 10081054
19:00+1ю51297100 0.8 1004674
22:00+1ю4998100 0.6 1000438
19 апреля, пн
пн1901:00+1зюз41098100 2.4 997742
04:00−5ссз81590100 1.3 10021008
07:00−9сз81584100 1.8 1011895
10:00−8сз71175100 0.1 1017999
13:00−5сз6961100 0.2 10221610
16:00−4сз5754100 0.1 10231919
19:00−4сз5757100 0.1 10251752
22:00−6ссз366995 0.1 1027854
20 апреля, вт
вт2001:00−7зсз37665 0.1 1028601
04:00−8зсз37776 0.0 1028451
07:00−9зсз36815 0.0 1029423
10:00−6з3559100 0.0 10291194
13:00−3з4649100 0.1 10271733
16:00−1зюз5742100 0.1 10252113
19:00−1зюз4952100 0.1 10231676
22:00−3юз41064100 0.0 10211260